Regional Weather Roundup
Issued by NWS Mt. Holly, NJ

Home | Current Version | Previous Version | Text Only | Print | Product List | Glossary On
Versions: 1 2 3 4 5 6 7 8 9 10 11 12 13 14 15 16 17 18 19 20 21 22 23 24 25 26 27 28 29 30 31 32 33 34 35 36 37 38 39 40 41 42 43 44 45 46 47 48 49 50
000
ASUS41 KPHI 260610
RWRPHI

REGIONAL WEATHER ROUNDUP
NATIONAL WEATHER SERVICE MOUNT HOLLY NJ
100 AM EST WED NOV 26 2014

NOTE:  "FAIR" INDICATES FEW OR NO CLOUDS BELOW 12,000 FEET WITH NO
SIGNIFICANT WEATHER AND/OR OBSTRUCTIONS TO VISIBILITY.

 * = STATION DOES NOT REPORT PRECIPITATION (E.G. RAIN, SNOW, ETC.)
        OR FOG.

NJZ015>026-260700-
SOUTHERN NEW JERSEY

CITY           SKY/WX    TMP DP  RH WIND       PRES   REMARKS
POMONA         CLOUDY    45  38  76 N5        30.16F
6HR MIN TEMP:  44; 6HR MAX TEMP:  49;

RIO GRANDE*    CLOUDY    45  39  81 CALM      30.14F
MILLVILLE      CLOUDY    45  40  82 CALM      30.17F
WRIGHTSTOWN    CLOUDY    44  36  72 CALM      30.15R
MOUNT HOLLY    CLOUDY    43  37  79 CALM      30.18R
TRENTON        CLOUDY    44  31  60 NW3       30.16S
6HR MIN TEMP:  43; 6HR MAX TEMP:  48;


$$
NJZ001>014-260700-
NORTHERN NEW JERSEY

CITY           SKY/WX    TMP DP  RH WIND       PRES   REMARKS
SUSSEX         MOCLDY    34  31  88 CALM      30.16R
ANDOVER*         N/A     37  33  85 CALM      30.16R
MORRISTOWN       N/A     43  36  75 CALM      30.16F
NEWARK         CLOUDY    48  31  51 W3        30.16S
TETERBORO      CLOUDY    49  29  46 SW5       30.15F
CALDWELL       CLOUDY    44  30  57 CALM      30.16S
SOMERVILLE     CLOUDY    38  33  82 CALM      30.16S
ALLAIRE*       CLOUDY    46  30  53 CALM      30.18R
TOMS RIVER*    CLOUDY    43  37  81 CALM      30.18R

$$
PAZ043-044-047-054-055-060>062-066>071-260700-
EASTERN PENNSYLVANIA

CITY           SKY/WX    TMP DP  RH WIND       PRES   REMARKS
PHILADELPHIA   CLOUDY    47  35  63 CALM      30.19R
6HR MIN TEMP:  47; 6HR MAX TEMP:  51;

NORTH PHILA    CLOUDY    47  33  58 CALM      30.19R
BLUE BELL      CLOUDY    41  37  87 CALM      30.17R
DOYLESTOWN     CLOUDY    41  35  79 CALM      30.16F
QUAKERTOWN*    CLOUDY    37  32  81 CALM      30.17R
POTTSTOWN      CLOUDY    39  33  79 CALM      30.18S
LANCASTER      CLOUDY    39  33  79 CALM      30.16S
COATESVILLE    CLOUDY    43  32  65 CALM      30.16S
READING        CLOUDY    40  32  73 N3        30.16S
6HR MIN TEMP:  38; 6HR MAX TEMP:  47;

ALLENTOWN      CLOUDY    37  31  78 CALM      30.16F
6HR MIN TEMP:  36; 6HR MAX TEMP:  46;

MOUNT POCONO   CLOUDY    39  26  59 NW5       30.12S
6HR MIN TEMP:  37; 6HR MAX TEMP:  41;

HAZLETON       CLOUDY    37  28  70 CALM      30.17R
WILKES BARRE   CLOUDY    41  27  57 N6        30.15F

$$
DEZALL-MDZ008-012-015-019-020-260700-
DELAWARE AND EASTERN MARYLAND

CITY           SKY/WX    TMP DP  RH WIND       PRES   REMARKS
WILMINGTON     CLOUDY    45  37  73 CALM      30.19R
6HR MIN TEMP:  44; 6HR MAX TEMP:  50;

DOVER          LGT RAIN  46  43  87 NW8       30.13F
GEORGETOWN     CLOUDY    49  40  71 N3        30.15F
6HR MIN TEMP:  47; 6HR MAX TEMP:  50;

EASTON         CLOUDY    49  40  71 E3        30.19S
PATUXENT       LGT RAIN  48  42  80 NW5       30.13F
OCEAN CITY     LGT RAIN  49  42  77 NE5       30.14S
WALLOPS ISLAND LGT RAIN  49  44  83 NE6       30.12F
CAMBRIDGE      CLOUDY    48  41  76 CALM      30.14F
SALISBURY      LGT RAIN  50  41  71 NE5       30.13F

$$
PAZ001-021-NYZ056-072-MDZ011-DCZ001-260700-
OTHER NEARBY LOCATIONS

CITY           SKY/WX    TMP DP  RH WIND       PRES   REMARKS
HARRISBURG     CLOUDY    40  34  79 N6        30.17S
STATE COLLEGE  MOCLDY    33  26  76 CALM      30.17R
WILLIAMSPORT   CLOUDY    32  27  81 CALM      30.19R
BINGHAMTON     CLOUDY    33  27  78 N9        30.12F WCI  25
NEW YORK CITY  CLOUDY    51  27  39 VRB5      30.17F
BALTIMORE      CLOUDY    45  35  68 CALM      30.15F
WASHINGTON DC  CLOUDY    50  38  63 CALM      30.16F

$$


USA.gov is the U.S. government's official web portal to all federal, state and local government web resources and services.